Madison, MN

7:48 AM CST on February 26, 2017 (GMT -0600)
Madison-Lac Qui Parle County

Weather History for KDXX - December, 2012

Change the Weather History Date:

Wednesday, December 5, 2012

  Actual Average (KAQP) Record (KAQP)
Temperature  
Mean Temperature 30 °F -  
Max Temperature 46 °F 29 °F 44 °F (2006)
Min Temperature 15 °F 14 °F -16 °F (2005)
Degree Days  
Heating Degree Days 34    
Moisture  
Dew Point 18 °F    
Average Humidity 59    
Maximum Humidity 79    
Minimum Humidity 37    
Precipitation  
Precipitation 0.00 in - - ()
Sea Level Pressure  
Sea Level Pressure 30.00 in    
Wind  
Wind Speed 11 mph (SE)    
Max Wind Speed 28 mph    
Max Gust Speed 32 mph    
Visibility 10 miles    
Events      
Averages and records for this station are not official NWS values.
T = Trace of Precipitation, MM = Missing Value Source: NWS Daily Summary

Daily Weather History Graph

Daily Weather History Graph

Search for Another Location

Airport or City:

Trip Planner

Search our weather history database for the weather conditions in past years. The results will help you decide how hot, cold, wet, or windy it might be!

Date:

Astronomy

Dec. 05, 2012 Rise Set
Actual Time 7:47 AM CST 4:43 PM CST
Civil Twilight 7:14 AM CST 5:16 PM CST
Nautical Twilight 6:37 AM CST 5:53 PM CST
Astronomical Twilight 6:01 AM CST 6:29 PM CST
Moon 11:47 PM CST (12/5) 11:59 AM CST (12/5)
Length of Visible Light 10h 02m
Length of Day
8h 55m
Waning Gibbous, 59% of the Moon is Illuminated
Dec 5
Waning Gibbous
Dec 6
Last Quarter
Dec 13
New
Dec 19
First Quarter
Dec 28
Full

Hourly Weather History & Observations

Time (CST) Temp. Windchill Dew Point Humidity Pressure Visibility Wind Dir Wind Speed Gust Speed Precip Events Conditions
12:14 AM 17.6 °F 12.3 °F 12.2 °F 79% 30.36 in 10.0 mi South 3.5 mph - N/A   Clear
12:33 AM 17.6 °F 9.3 °F 12.2 °F 79% 30.35 in 10.0 mi SSE 5.8 mph - N/A   Clear
12:54 AM 15.8 °F 8.6 °F 10.4 °F 79% 30.35 in 10.0 mi SSE 4.6 mph - N/A   Clear
1:14 AM 15.8 °F 7.2 °F 10.4 °F 79% 30.34 in 10.0 mi SSE 5.8 mph - N/A   Clear
1:54 AM 15.8 °F - 10.4 °F 79% 30.33 in 10.0 mi Calm Calm - N/A   Clear
2:14 AM 17.6 °F 8.2 °F 12.2 °F 79% 30.33 in 10.0 mi SE 6.9 mph - N/A   Clear
2:28 AM 17.6 °F 7.3 °F 10.4 °F 73% 30.32 in 10.0 mi ESE 8.1 mph - N/A   Clear
2:46 AM 17.6 °F 9.3 °F 10.4 °F 73% 30.33 in 10.0 mi SE 5.8 mph - N/A   Clear
3:14 AM 15.8 °F 6.1 °F 10.4 °F 79% 30.32 in 10.0 mi SE 6.9 mph - N/A   Clear
3:33 AM 15.8 °F 4.2 °F 10.4 °F 79% 30.31 in 10.0 mi SE 9.2 mph - N/A   Clear
3:54 AM 15.8 °F 5.1 °F 10.4 °F 79% 30.30 in 10.0 mi SE 8.1 mph - N/A   Clear
4:14 AM 17.6 °F 7.3 °F 10.4 °F 73% 30.30 in 10.0 mi SE 8.1 mph - N/A   Clear
4:33 AM 17.6 °F 6.4 °F 12.2 °F 79% 30.28 in 10.0 mi SE 9.2 mph - N/A   Clear
4:54 AM 17.6 °F 5.7 °F 12.2 °F 79% 30.27 in 10.0 mi SE 10.4 mph - N/A   Clear
5:14 AM 17.6 °F 4.3 °F 12.2 °F 79% 30.27 in 10.0 mi SE 12.7 mph - N/A   Clear
5:33 AM 17.6 °F 5.7 °F 12.2 °F 79% 30.25 in 10.0 mi SE 10.4 mph - N/A   Clear
5:54 AM 17.6 °F 4.3 °F 12.2 °F 79% 30.24 in 10.0 mi SE 12.7 mph - N/A   Clear
6:13 AM 17.6 °F 5.0 °F 12.2 °F 79% 30.23 in 10.0 mi SE 11.5 mph - N/A   Clear
6:34 AM 19.4 °F 7.2 °F 12.2 °F 74% 30.23 in 10.0 mi SE 11.5 mph - N/A   Clear
6:54 AM 19.4 °F 7.2 °F 12.2 °F 74% 30.22 in 10.0 mi SE 11.5 mph - N/A   Clear
8:34 AM 21.2 °F 6.8 °F 12.2 °F 68% 30.17 in 10.0 mi SE 17.3 mph 23.0 mph N/A   Clear
8:54 AM 23.0 °F 9.2 °F 14.0 °F 68% 30.16 in 10.0 mi SE 17.3 mph 24.2 mph N/A   Clear
9:13 AM 23.0 °F 8.3 °F 14.0 °F 68% 30.14 in 10.0 mi SE 19.6 mph 25.3 mph N/A   Clear
9:34 AM 24.8 °F 10.3 °F 14.0 °F 64% 30.12 in 10.0 mi SE 20.7 mph - N/A   Clear
9:54 AM 24.8 °F 9.6 °F 14.0 °F 64% 30.11 in 10.0 mi SE 23.0 mph 29.9 mph N/A   Clear
10:13 AM 26.6 °F 11.1 °F 14.0 °F 59% 30.09 in 10.0 mi SE 26.5 mph - N/A   Clear
10:34 AM 28.4 °F 13.3 °F 15.8 °F 59% 30.07 in 10.0 mi SSE 27.6 mph 32.2 mph N/A   Clear
10:54 AM 28.4 °F 14.7 °F 15.8 °F 59% 30.06 in 10.0 mi SSE 21.9 mph 26.5 mph N/A   Clear
11:13 AM 30.2 °F 17.1 °F 17.6 °F 60% 30.04 in 10.0 mi SSE 21.9 mph 28.8 mph N/A   Clear
11:34 AM 32.0 °F 19.5 °F 17.6 °F 55% 30.02 in 10.0 mi SSE 21.9 mph 26.5 mph N/A   Clear
11:54 AM 33.8 °F 22.2 °F 17.6 °F 52% 30.00 in 10.0 mi SSE 20.7 mph 25.3 mph N/A   Clear
12:13 PM 35.6 °F 24.5 °F 19.4 °F 52% 29.98 in 10.0 mi SSE 20.7 mph - N/A   Clear
12:34 PM 37.4 °F 26.6 °F 19.4 °F 48% 29.96 in 10.0 mi SSE 21.9 mph 27.6 mph N/A   Clear
12:54 PM 39.2 °F 29.0 °F 19.4 °F 45% 29.95 in 10.0 mi SSE 21.9 mph 26.5 mph N/A   Clear
1:13 PM 42.8 °F 33.8 °F 19.4 °F 39% 29.92 in 10.0 mi SSE 21.9 mph 29.9 mph N/A   Clear
1:34 PM 42.8 °F 34.0 °F 19.4 °F 39% 29.92 in 10.0 mi SSE 20.7 mph 26.5 mph N/A   Clear
1:54 PM 44.6 °F 36.9 °F 19.4 °F 37% 29.91 in 10.0 mi SSE 18.4 mph - N/A   Unknown
2:14 PM 44.6 °F 36.6 °F 19.4 °F 37% 29.89 in 10.0 mi SSE 19.6 mph - N/A   Clear
2:34 PM 42.8 °F 34.5 °F 21.2 °F 42% 29.88 in 10.0 mi SSE 18.4 mph 21.9 mph N/A   Clear
2:54 PM 42.8 °F 35.4 °F 21.2 °F 42% 29.86 in 10.0 mi SE 15.0 mph - N/A   Clear
3:14 PM 44.6 °F 37.8 °F 21.2 °F 39% 29.85 in 10.0 mi SE 15.0 mph 20.7 mph N/A   Clear
3:34 PM 42.8 °F 35.4 °F 21.2 °F 42% 29.84 in 10.0 mi SE 15.0 mph - N/A   Clear
3:54 PM 42.8 °F 35.8 °F 21.2 °F 42% 29.83 in 10.0 mi SE 13.8 mph - N/A   Clear
4:14 PM 42.8 °F 36.2 °F 21.2 °F 42% 29.83 in 10.0 mi SE 12.7 mph - N/A   Clear
4:34 PM 42.8 °F 35.8 °F 21.2 °F 42% 29.82 in 10.0 mi SE 13.8 mph - N/A   Clear
4:54 PM 42.8 °F 35.8 °F 21.2 °F 42% 29.80 in 10.0 mi SE 13.8 mph - N/A   Clear
5:14 PM 42.8 °F 35.4 °F 23.0 °F 46% 29.79 in 10.0 mi SE 15.0 mph - N/A   Clear
5:34 PM 42.8 °F 35.1 °F 23.0 °F 46% 29.79 in 10.0 mi SE 16.1 mph - N/A   Clear
6:14 PM 41.0 °F 33.9 °F 24.8 °F 53% 29.78 in 10.0 mi SE 12.7 mph - N/A   Clear
6:34 PM 41.0 °F 33.9 °F 24.8 °F 53% 29.77 in 10.0 mi SE 12.7 mph - N/A   Clear
6:54 PM 39.2 °F 31.6 °F 24.8 °F 56% 29.77 in 10.0 mi SE 12.7 mph - N/A   Clear
7:13 PM 39.2 °F 32.0 °F 24.8 °F 56% 29.76 in 10.0 mi ESE 11.5 mph - N/A   Clear
7:34 PM 39.2 °F 32.5 °F 23.0 °F 52% 29.76 in 10.0 mi SE 10.4 mph - N/A   Clear
7:53 PM 39.2 °F 32.5 °F 24.8 °F 56% 29.76 in 10.0 mi SE 10.4 mph - N/A   Clear
8:14 PM 39.2 °F 31.6 °F 24.8 °F 56% 29.75 in 10.0 mi SE 12.7 mph - N/A   Clear
8:34 PM 39.2 °F 31.6 °F 24.8 °F 56% 29.73 in 10.0 mi SSE 12.7 mph - N/A   Clear
8:53 PM 41.0 °F 33.9 °F 24.8 °F 53% 29.73 in 10.0 mi SE 12.7 mph - N/A   Clear
9:14 PM 39.2 °F 30.8 °F 24.8 °F 56% 29.71 in 10.0 mi SE 15.0 mph - N/A   Clear
9:34 PM 39.2 °F 31.6 °F 26.6 °F 61% 29.70 in 10.0 mi SSE 12.7 mph - N/A   Clear
9:53 PM 41.0 °F 34.7 °F 24.8 °F 53% 29.70 in 10.0 mi SSE 10.4 mph - N/A   Clear
10:14 PM 42.8 °F 36.6 °F 26.6 °F 53% 29.69 in 10.0 mi South 11.5 mph - N/A   Clear
10:34 PM 44.6 °F 38.4 °F 24.8 °F 46% 29.68 in 10.0 mi South 12.7 mph - N/A   Clear
10:53 PM 46.4 °F 41.9 °F 24.8 °F 43% 29.68 in 10.0 mi South 9.2 mph - N/A   Clear
11:14 PM 44.6 °F 39.7 °F 24.8 °F 46% 29.69 in 10.0 mi South 9.2 mph - N/A   Clear
11:34 PM 44.6 °F 42.2 °F 24.8 °F 46% 29.70 in 10.0 mi SSE 4.6 mph - N/A   Clear
11:53 PM 44.6 °F 40.2 °F 24.8 °F 46% 29.69 in 10.0 mi South 8.1 mph - N/A   Clear